Weather History for KLXV - October, 2012

Change the Weather History Date:

Tuesday, October 2, 2012

  Actual Average Record
Temperature  
Mean Temperature 46 °F -  
Max Temperature 63 °F 55 °F 67 °F (1992)
Min Temperature 28 °F 27 °F 17 °F (1977)
Degree Days  
Heating Degree Days 19 24  
Month to date heating degree days 39 48  
Since 1 July heating degree days 1145 1346  
Cooling Degree Days 0 0  
Month to date cooling degree days 0 0  
Year to date cooling degree days 0 0  
Moisture  
Dew Point 20 °F    
Average Humidity 43    
Maximum Humidity 69    
Minimum Humidity 17    
Precipitation  
Precipitation 0.00 in 0.03 in 0.16 in (1990)
Month to date precipitation 0.00 0.06  
Year to date precipitation 9.39 10.09  
Sea Level Pressure  
Sea Level Pressure 29.95 in    
Wind  
Wind Speed 7 mph (North)    
Max Wind Speed 18 mph    
Max Gust Speed 28 mph    
Visibility 10 miles    
Events      
T = Trace of Precipitation, MM = Missing Value Source: NWS Daily Summary

Daily Weather History Graph

Daily Weather History Graph

Search for Another Location

Airport or City:

Trip Planner

Search our weather history database for the weather conditions in past years. The results will help you decide how hot, cold, wet, or windy it might be!

Date:

Astronomy

Oct. 02, 2012 Rise Set
Actual Time 7:02 AM MDT 6:45 PM MDT
Civil Twilight 6:36 AM MDT 7:12 PM MDT
Nautical Twilight 6:05 AM MDT 7:43 PM MDT
Astronomical Twilight 5:33 AM MDT 8:14 PM MDT
Moon 8:01 PM MDT (10/2) 9:31 AM MDT (10/2)
Length of Visible Light 12h 36m
Length of Day
11h 42m
Waning Gibbous, 94% of the Moon is Illuminated
Oct 2
Waning Gibbous
Oct 8
Last Quarter
Oct 15
New
Oct 21
First Quarter
Oct 29
Full

Hourly Weather History & Observations

Time (MDT) Temp. Windchill Dew Point Humidity Pressure Visibility Wind Dir Wind Speed Gust Speed Precip Events Conditions
12:53 AM 34.0 °F 28.0 °F 21.9 °F 61% 30.04 in 10.0 mi NE 6.9 mph - N/A   Clear
1:53 AM 33.1 °F 27.7 °F 21.9 °F 64% 30.03 in 10.0 mi East 5.8 mph - N/A   Clear
2:53 AM 36.0 °F 29.0 °F 23.0 °F 59% 29.99 in 10.0 mi NE 9.2 mph - N/A   Clear
3:53 AM 32.0 °F 24.8 °F 21.9 °F 66% 30.01 in 10.0 mi NE 8.1 mph - N/A   Clear
4:53 AM 33.1 °F 25.5 °F 19.9 °F 59% 30.00 in 10.0 mi NE 9.2 mph - N/A   Clear
5:53 AM 28.0 °F 20.0 °F 19.9 °F 72% 30.04 in 10.0 mi ENE 8.1 mph - N/A   Clear
6:53 AM 30.9 °F 24.3 °F 19.9 °F 64% 30.05 in 10.0 mi North 6.9 mph - N/A   Clear
7:53 AM 34.0 °F 28.0 °F 21.0 °F 59% 30.08 in 10.0 mi ENE 6.9 mph - N/A   Clear
9:53 AM 51.1 °F - 24.1 °F 35% 29.97 in 10.0 mi Variable 6.9 mph - N/A   Clear
10:53 AM 54.0 °F - 24.1 °F 31% 29.97 in 10.0 mi WNW 10.4 mph - N/A   Clear
11:53 AM 57.0 °F - 21.9 °F 26% 29.94 in 10.0 mi North 11.5 mph 19.6 mph N/A   Clear
12:53 PM 59.0 °F - 21.9 °F 24% 29.91 in 10.0 mi NNW 8.1 mph 19.6 mph N/A   Clear
1:53 PM 61.0 °F - 16.0 °F 17% 29.89 in 10.0 mi NNW 10.4 mph 20.7 mph N/A   Clear
2:53 PM 61.0 °F - 17.1 °F 18% 29.85 in 10.0 mi NW 11.5 mph 21.9 mph N/A   Clear
3:53 PM 62.1 °F - 18.0 °F 18% 29.86 in 10.0 mi NW 9.2 mph - N/A   Clear
4:53 PM 61.0 °F - 17.1 °F 18% 29.86 in 10.0 mi WNW 10.4 mph - N/A   Clear
5:53 PM 59.0 °F - 16.0 °F 19% 29.90 in 10.0 mi West 12.7 mph - N/A   Clear
6:53 PM 54.0 °F - 17.1 °F 23% 29.93 in 10.0 mi WNW 9.2 mph - N/A   Clear
7:53 PM 52.0 °F - 18.0 °F 26% 29.94 in 10.0 mi WNW 6.9 mph - N/A   Clear
8:53 PM 44.1 °F - 19.0 °F 37% 29.90 in 10.0 mi Calm Calm - N/A   Clear
9:53 PM 43.0 °F 41.3 °F 19.0 °F 38% 29.90 in 10.0 mi NE 3.5 mph - N/A   Clear
10:53 PM 43.0 °F 40.3 °F 19.9 °F 40% 29.87 in 10.0 mi NNE 4.6 mph - N/A   Clear
11:53 PM 45.0 °F - 19.9 °F 37% 29.83 in 10.0 mi Calm Calm - N/A   Clear